TimeCDT,TemperatureF,Dew PointF,Humidity,Sea Level PressureIn,VisibilityMPH,Wind Direction,Wind SpeedMPH,Gust SpeedMPH,PrecipitationIn,Events,Conditions,WindDirDegrees,DateUTC
12:50 AM,83,69,54,29.77,4,ESE,15.7,,,,,120,2013-04-30 05:50:00
3:50 AM,78,71,72,29.75,4,ESE,11.2,,,,,120,2013-04-30 08:50:00
5:15 AM,78.8,71.6,78,29.75,7.0,ESE,13.8,-,N/A,,Clear,120,2013-04-30 10:15:00
5:45 AM,77.0,71.6,83,29.76,7.0,ESE,11.5,-,N/A,,Clear,120,2013-04-30 10:45:00
6:44 AM,77.0,71.6,83,29.78,7.0,ESE,11.5,-,N/A,,Partly Cloudy,120,2013-04-30 11:44:00
7:41 AM,77.0,73.4,89,29.81,7.0,ESE,5.8,-,N/A,,Partly Cloudy,120,2013-04-30 12:41:00
8:45 AM,80.6,73.4,79,29.82,7.0,ESE,9.2,-,N/A,,Scattered Clouds,120,2013-04-30 13:45:00
9:41 AM,82.4,73.4,74,29.81,7.0,ESE,16.1,-,N/A,,Scattered Clouds,120,2013-04-30 14:41:00
9:50 AM,89,74,53,29.81,6,ESE,6.7,,,,Clear,120,2013-04-30 14:50:00
10:45 AM,87.8,71.6,58,29.78,7.0,SSE,9.2,-,N/A,,Scattered Clouds,150,2013-04-30 15:45:00
11:42 AM,91.4,71.6,52,29.77,7.0,East,11.5,23.0,N/A,,Scattered Clouds,100,2013-04-30 16:42:00
12:43 PM,95.0,69.8,44,29.75,7.0,ESE,9.2,-,N/A,,Scattered Clouds,120,2013-04-30 17:43:00
12:50 PM,101,72,31,29.74,6,South,4.5,,,,Clear,170,2013-04-30 17:50:00
1:40 PM,98.6,66.2,35,29.72,7.0,East,8.1,-,N/A,,Scattered Clouds,100,2013-04-30 18:40:00
2:42 PM,89.6,73.4,59,29.70,7.0,West,11.5,23.0,N/A,,Scattered Clouds,280,2013-04-30 19:42:00
3:43 PM,87.8,75.2,66,29.69,7.0,West,11.5,23.0,N/A,,Scattered Clouds,280,2013-04-30 20:43:00
3:50 PM,91,76,54,29.70,6,West,6.7,,,,Scattered Clouds,280,2013-04-30 20:50:00
4:44 PM,87.8,75.2,66,29.68,7.0,West,11.5,23.0,N/A,,Scattered Clouds,280,2013-04-30 21:44:00
5:41 PM,87.8,73.4,62,29.67,7.0,West,11.5,23.0,N/A,,Scattered Clouds,280,2013-04-30 22:41:00
6:44 PM,87.8,75.2,66,29.68,6.0,West,11.5,-,N/A,,Mostly Cloudy,280,2013-04-30 23:44:00
6:50 PM,88,77,62,29.69,6,NNW,4.5,,,,Partly Cloudy,330,2013-04-30 23:50:00
7:43 PM,86.0,77.0,74,29.69,7.0,North,11.5,-,N/A,,Mostly Cloudy,350,2013-05-01 00:43:00
8:40 PM,86.0,77.0,74,29.72,6.0,North,11.5,-,N/A,,Scattered Clouds,350,2013-05-01 01:40:00
9:43 PM,86.0,75.2,70,29.73,6.0,North,11.5,-,N/A,,Scattered Clouds,350,2013-05-01 02:43:00
9:50 PM,86,76,65,29.74,4,North,2.2,,,,,350,2013-05-01 02:50:00
10:43 PM,86.0,73.4,66,29.75,6.0,North,9.2,-,N/A,,Clear,360,2013-05-01 03:43:00
11:43 PM,84.2,73.4,70,29.76,6.0,North,8.1,-,N/A,,Clear,360,2013-05-01 04:43:00